OpenBCM V2.0.2 (Linux)

Packet Radio Mailbox

IZ3LSV

[San Dona' di P. JN]

 Login: GUEST





  
CX2SA  > KEPS     17.10.14 01:06l 274 Lines 13351 Bytes #999 (0) @ WW
BID : ORB14289.N
Read: GUEST
Subj: 2Line Orbital Elements 14289.AMSAT
Path: IZ3LSV<IW0QNL<IW2OHX<IR1UAW<IK1NHL<CX2SA
Sent: 141016/2306Z @:CX2SA.SAL.URY.SOAM #:11519 [Salto] FBB7.00e $:ORB14289.N
From: CX2SA@CX2SA.SAL.URY.SOAM
To  : KEPS@AMSAT

HR AMSAT ORBITAL ELEMENTS FOR AMATEUR SATELLITES IN NASA FORMAT
FROM WA5QGD FORT WORTH,TX October 16, 2014
BID: ORB14289.N
DECODE 2-LINE ELSETS WITH THE FOLLOWING KEY:
1 AAAAAU 00  0  0 BBBBB.BBBBBBBB  .CCCCCCCC  00000-0  00000-0 0  DDDZ
2 AAAAA EEE.EEEE FFF.FFFF GGGGGGG HHH.HHHH III.IIII JJ.JJJJJJJJKKKKKZ
KEY: A-CATALOGNUM B-EPOCHTIME C-DECAY D-ELSETNUM E-INCLINATION F-RAAN
G-ECCENTRICITY H-ARGPERIGEE I-MNANOM J-MNMOTION K-ORBITNUM Z-CHECKSUM
TO ALL RADIO AMATEURS BT
AO-07
1 07530U 74089B   14288.49232344 -.00000024  00000-0  12065-3 0   969
2 07530 101.4877 266.4252 0012349 060.9096 054.1708 12.53607964826599
FO-29
1 24278U 96046B   14288.97673712 -.00000014  00000-0  23051-4 0  4966
2 24278 098.5157 286.1691 0350036 344.4023 065.0329 13.53032290897007
SO-33
1 25509U 98061B   14289.15997803  .00000462  00000-0  80262-4 0  8624
2 25509 031.4306 194.8931 0348887 094.3605 022.4352 14.29685421834476
RS-22
1 27939U 03042A   14289.45241863  .00000334  00000-0  69977-4 0  9572
2 27939 097.8209 097.6606 0014459 084.5903 328.2469 14.65411135590484
HO-68
1 36122U 09072B   14289.19708948  .00000029  00000-0  18971-3 0   375
2 36122 100.2345 337.3110 0006940 323.1827 079.2795 13.16318569232351
AO-73
1 39444U 13066AE  14288.75733662  .00001260  00000-0  17335-3 0  2840
2 39444 097.7640 355.2642 0061093 210.4614 149.3044 14.78759543 47282
EO-79
1 40025U 14033R   14289.67654724  .00002696  00000-0  31730-3 0  3496
2 40025 097.9696 184.5148 0011842 264.6704 095.3115 14.85635478 17626
UO-11
1 14781U 84021B   14289.38632641  .00000252  00000-0  38425-4 0  6377
2 14781 097.8384 347.0677 0009876 141.3666 218.8256 14.81807256645912
AO-16
1 20439U 90005D   14289.44821814  .00000057  00000-0  36973-4 0  1501
2 20439 098.5161 224.5461 0011536 155.9212 319.7958 14.32404602291847
LO-19
1 20442U 90005G   14289.39479134  .00000043  00000-0  31557-4 0   858
2 20442 098.4871 224.7836 0012675 145.7706 214.4297 14.32603635292032
AO-27
1 22825U 93061C   14289.48148788  .00000043  00000-0  34046-4 0  7974
2 22825 098.6755 234.9853 0007356 306.3142 167.3809 14.29761467 98115
IO-26
1 22826U 93061D   14288.79941277  .00000045  00000-0  34631-4 0  5545
2 22826 098.6695 234.5068 0007847 299.6713 060.3688 14.30065860 98153
GO-32
1 25397U 98043D   14289.43201380  .00000014  00000-0  24651-4 0  4762
2 25397 098.4850 242.9865 0000768 023.1972 129.5672 14.23470827845112
NO-44
1 26931U 01043C   14288.47150689  .00000070  00000-0  58786-4 0  7298
2 26931 067.0513 088.2694 0007448 274.3066 085.7184 14.30165998680804
SO-50
1 27607U 02058C   14289.60815192  .00001702  00000-0  24992-3 0  5460
2 27607 064.5564 222.1576 0061792 338.6354 021.2663 14.74011464635372
CO-55
1 27844U 03031E   14288.98262405  .00000145  00000-0  86137-4 0   485
2 27844 098.6988 296.0218 0008574 287.0373 125.2027 14.21582414585747
CO-57
1 27848U 03031J   14288.53479047  .00000140  00000-0  84161-4 0  9919
2 27848 098.7084 295.3573 0008509 296.3370 183.3683 14.21259714585593
AO-51
1 28375U 04025K   14289.06068979  .00000470  00000-0  15237-3 0  9694
2 28375 098.2633 231.9256 0082540 347.9312 011.9899 14.41457750541313
CP3
1 31129U 07012N   14288.93968675  .00000819  00000-0  18894-3 0  8756
2 31129 097.9483 260.9057 0097787 355.7990 068.7469 14.54970387397594
CO-65
1 32785U 08021C   14288.75316625  .00001204  00000-0  14464-3 0   916
2 32785 097.6859 336.0174 0014734 147.9657 344.8219 14.85674499349928
PRISM
1 33493U 09002B   14289.66957843  .00003077  00000-0  32180-3 0  4017
2 33493 098.2552 110.6026 0018258 050.0122 077.2826 14.90341694310260
SOHLA-1
1 33496U 09002E   14288.81207630  .00000182  00000-0  38067-4 0  4901
2 33496 098.1844 050.1459 0006001 208.7525 269.6394 14.70943230307249
TISAT-1
1 36799U 10035E   14289.50811522  .00001398  00000-0  16504-3 0  6471
2 36799 098.0184 022.4559 0012452 286.3738 136.7799 14.86310268230730
STUDSAT
1 36801U 10035G   14287.98234865  .00013041  00000-0  10658-2 0  9085
2 36801 098.0394 031.4925 0006925 250.4164 161.9577 14.99495404231068
ALMASAT-1
1 38078U 12006B   14288.23073036  .00027660  33191-5  55242-3 0  1831
2 38078 069.4662 128.3933 0571792 231.9849 252.5947 14.56235746139074
XATCOBEO
1 38082U 12006F   14243.34478676  .13583328  43697-5  37939-3 0  5637
2 38082 069.3815 097.0364 0033293 225.1799 135.4582 16.41261006136239
CUBEBUG-1
1 39153U 13018D   14289.21366193  .00002174  00000-0  30757-3 0  5714
2 39153 098.0365 009.2479 0016790 323.4423 036.5640 14.78062719 79420
ESTCUBE-1
1 39161U 13021C   14289.44265428  .00000434  00000-0  80161-4 0  5768
2 39161 098.0923 009.4217 0009823 018.2691 341.8866 14.70274529 77400
DUCHIFAT-1
1 40021U 14033M   14289.66441241  .00003983  00000-0  46274-3 0  3544
2 40021 097.9677 184.5534 0012030 263.2087 096.7761 14.85884604 17617
NANOSATCBR1
1 40024U 14033Q   14289.67324704  .00003491  00000-0  40796-3 0  3460
2 40024 097.9648 184.5164 0011293 260.6879 099.3059 14.85734455 17614
DTUSAT-2
1 40030U 14033W   14289.63876396  .00002933  00000-0  34786-3 0  3420
2 40030 097.9651 184.3910 0010872 251.4738 108.5304 14.85260081 17611
ANTELSAT
1 40034U 14033AA  14289.65430801  .00002026  00000-0  32520-3 0  3510
2 40034 097.9655 181.8512 0060641 178.1369 182.0071 14.71522200 17463
MET-2/21
1 22782U 93055A   14289.05615427  .00000058  00000-0  39221-4 0  2006
2 22782 082.5482 077.3969 0021009 286.1193 211.3999 13.83746466 66830
OKEAN-4
1 23317U 94066A   14288.78819679  .00000417  00000-0  44900-4 0  6821
2 23317 082.5367 314.8450 0021647 063.3869 058.8104 14.85794385 81019
NOAA-14
1 23455U 94089A   14289.35447770  .00000063  00000-0  55939-4 0  9444
2 23455 098.7725 010.6029 0010184 059.6496 341.8890 14.13991621 21070
NOAA-15
1 25338U 98030A   14289.48784128  .00000077  00000-0  51243-4 0  3826
2 25338 098.7610 283.1643 0011346 151.4960 320.3296 14.25484864854123
RESURS
1 25394U 98043A   14288.49286831 -.00000006  00000-0  15295-4 0  7857
2 25394 098.4295 247.8899 0000286 230.3281 238.1346 14.24405198845444
FENGYUN1
1 25730U 99025A   14288.79613488  .00001448  00000-0  80968-3 0  2748
2 25730 098.9207 249.2108 0023027 124.3833 297.5983 14.12242884794546
OKEAN-0
1 25860U 99039A   14288.95990032  .00001132  00000-0  17402-3 0  3911
2 25860 098.0592 252.2206 0001778 085.7674 315.6252 14.75460882819967
NOAA-16
1 26536U 00055A   14289.30636283  .00000024  00000-0  36972-4 0  8803
2 26536 098.9772 350.1130 0010526 196.6266 163.4562 14.13044019725210
NOAA-17
1 27453U 02032A   14289.47534039  .00000079  00000-0  51478-4 0  7709
2 27453 098.3216 282.8461 0012108 172.6843 187.4516 14.24792353639950
NOAA-18
1 28654U 05018A   14289.49044300 -.00000008  00000-0  21060-4 0  2947
2 28654 099.1620 271.5075 0013312 284.6205 183.9915 14.12079141484684
NOAA-19
1 33591U 09005A   14289.47476953  .00000179  00000-0  12286-3 0  4268
2 33591 098.9575 234.2150 0014788 134.7700 332.8178 14.11780900293101
HUBBLE
1 20580U 90037B   14289.50405269  .00001526  00000-0  90609-4 0  1364
2 20580 028.4711 319.3845 0003259 139.4638 351.5672 15.05934665143029
ISS
1 25544U 98067A   14289.66585840  .00013546  00000-0  24062-3 0  2524
2 25544 051.6472 217.4320 0002522 263.0361 169.3300 15.50503666910175
CO-58
1 28895U 05043F   14288.53051097  .00000403  00000-0  88788-4 0  8996
2 28895 097.8261 124.1216 0016981 355.2444 004.8594 14.62095144477831
FALCON
1 30776U 07006E   14288.74742764  .00006069  00000-0  29354-3 0  9829
2 30776 035.4280 086.5197 0002482 296.5608 150.3082 15.18031361419052
MAST
1 31126U 07012K   14288.80581317  .00000398  00000-0  96779-4 0  1791
2 31126 097.9289 263.5074 0091042 338.9604 135.2831 14.55477692397939
CAPE1
1 31130U 07012P   14288.80188793  .00000567  00000-0  13460-3 0  1857
2 31130 097.9501 260.3119 0098271 357.7085 002.3650 14.54701732397341
COMPASS
1 32787U 08021E   14289.12646803  .00003973  00000-0  43172-3 0   748
2 32787 097.6881 339.1469 0014764 138.4097 221.8246 14.88565642350177
AAUSAT2
1 32788U 08021F   14289.13800224  .00004760  00000-0  50629-3 0   626
2 32788 097.6893 340.2972 0014321 136.2085 224.0271 14.89345481350244
DO-64
1 32789U 08021G   14289.17711211  .00009233  00000-0  85152-3 0  1066
2 32789 097.7082 348.0548 0013099 121.2550 303.4174 14.94815033350563
CO-66
1 32791U 08021J   14289.12896866  .00003610  00000-0  40726-3 0   569
2 32791 097.6878 337.6527 0015495 142.3755 217.8549 14.87089148350029
RS-30
1 32953U 08025A   14289.14270969  .00000043  00000-0  23750-3 0  3899
2 32953 082.4991 126.0139 0018231 252.1417 203.1758 12.43051478290288
METEOR-M
1 35865U 09049A   14289.33885654  .00000035  00000-0  35027-4 0  9927
2 35865 098.5369 332.9981 0003617 106.1417 314.8305 14.21937653263557
RS-38
1 35869U 09049E   14289.20511226  .00000004  00000-0  20938-4 0  9008
2 35869 098.5288 332.6115 0005817 104.6321 296.4902 14.22233556263570
JUGNU
1 37839U 11058B   14289.20523337  .00000509  00000-0  12990-3 0  7169
2 37839 019.9611 241.4634 0018712 237.7657 214.5505 14.12350387155680
SRMSAT
1 37841U 11058D   14289.15240309  .00000465  00000-0  11129-3 0  7187
2 37841 019.9719 263.5367 0011748 171.3273 251.4063 14.10385189155459
RAX-2
1 37853U 11061D   14288.47291818  .00005107  00000-0  34436-3 0  9365
2 37853 101.7033 015.5639 0211449 068.4666 355.8515 14.91058027160577
AUBIESAT
1 37854U 11061E   14289.15184747  .00009465  00000-0  60836-3 0  9357
2 37854 101.7079 018.8717 0208833 062.9514 001.2300 14.92573310160746
HRBE
1 37855U 11061F   14289.45668714  .00004915  00000-0  32520-3 0  9547
2 37855 101.7078 018.4892 0211112 063.7614 298.5122 14.91785940160746
